Probability
0 0 0 0 0 0 0 0 0 0 0 0 0 0 0 0 0 0 0 0 0 0 0 0 0 0 0 0 0 0 0 0 0 0 0 0 0 0 0 0 0 0 0
0 0 0 0 0 0 0 0 0 0 0 0 0 0 0 0 0 0 0 0 0 0 0 0 0 0 0 0 0 0 0 0 0 0 0 0 0 0 0 0 0 0 0
0 0 0 0 0 0 0 0 0 0 0 0 0 0 0 0 0 0 0 0 0 0 0 0 0 0 0 0 0 0 0 0 0 0 0 0 0 0 0 0 0 0 0
0 0 0 0 0 0 0 0 0 0 0 0 0 0 0 0 0 0 0 0 0 0 0 0 0 0 0 0 0 0 0 0 0 0 0 0 0 0 0 0 0 0 0
0 0 0 0 0 0 0 0 0 0 0 0 0 0 0 0 0 0 0 0 0 0 0 0 0 0 0 0 0 0 0 0 0 0 0 0 0 0 0 0 0 0 0
0 0 0 0 0 0 0 0 0 0 0 0 0 0 0 0 0 0 0 0 0 0 0 0 0 0 0 0 0 0 0 0 0 0 0 0 0 0 0 0 0 0 0
0 0 0 0 0 0 0 0 0 0 0 0 0 0 0 0 0 0 0 0 0 0 0 0 0 0 0 0 0 0 0 0 0 0 0 0 0 0 0 0 0 0 0
0 0 0 0 0 0 0 0 0 0 0 0 0 0 0 0 0 0 0 0 0 0 0 0 0 0 0 0 0 0 0 0 0 0 0 0 0 0 0 0 0 0 0
0 0 0 0 0 0 0 0 0 0 0 0 0 0 0 0 0 0 0 0 0 0 0 0 0 0 0 0 0 0 0 0 0 0 0 0 0 0 0 0 0 0 0
0 0 0 0 0 0 0 0 0 0 0 0 0 0 0 0 0 0 0 0 0 0 0 0 0 0 0 0 0 0 0 0 0 0 0 0 0 0 0 0 0 0 0
0 0 0 0 0 0 0 0 0 0 0 0 0 0 0 0 0 0 0 0 0 0 0 0 0 0 0 0 0 0 0 0 0 0 0 0 0 0 0 0 0 0 0
0 0 0 0 0 0 0 0 0 0 0 0 0 0 0 0 0 0 0 0 0 0 0 0 0 0 0 0 0 0 0 0 0 0 0 0 0 0 0 0 0 0 0
0 0 0 0 0 0 0 0 0 0 0 0 0 0 0 0 0 0 0 0 0 0 0 0 0 0 0 0 0 0 0 0 0 0 0 0 0 0 0 0 0 0 0
0 0 0 0 0 0 0 0 0 0 0 0 0 0 0 0 0 0 0 0 0 0 0 0 0 0 0 0 0 0 0 0 0 0 0 0 0 0 0 0 0 0 0
0 0 0 0 0 0 0 0 0 0 0 0 0 0 0 0 0 0 0 0 0 0 0 0 0 0 0 0 0 0 0 0 0 0 0 0 0 0 0 0 0 0 0
0 0 0 0 0 0 0 0 0 0 0 0 0 0 0 0 0 0 0 0 0 0 0 0 0 0 0 0 0 0 0 0 0 0 0 0 0 0 0 0 0 0 0
0 0 0 0 0 0 0 0 0 0 0 0 0 0 0 0 0 0 0 0 0 0 0 0 0 0 0 0 0 0 0 0 0 0 0 0 0 0 0 0 0 0 0
0 0 0 0 0 0 0 0 0 0 0 0 0 0 0 0 0 0 0 0 0 0 0 0 0 0 0 0 0 0 0 0 0 0 0 0 0 0 0 0 0 0 0
0 0 0 0 0 0 0 0 0 0 0 0 0 0 0 0 0 0 0 0 0 0 0 0 0 0 0 0 0 0 0 0 0 0 0 0 0 0 0 0 0 0 0
0 0 0 0 0 0 0 0 0 0 0 0 0 0 0 0 0 0 0 0 0 0 0 0 0 0 0 0 0 0 0 0 0 0 0 0 0 0 0 0 0 0 0
0 0 0 0 0 0 0 0 0 0 0 0 0 0 0 0 0 0 0 0 0 0 0 0 0 0 0 0 0 0 0 0 0 0 0 0 0 0 0 0 0 0 0
0 0 0 0 0 0 0 0 0 0 0 0 0 0 0 0 0 0 0 0 0 0 0 0 0 0 0 0 0 0 0 0 0 0 0 0 0 0 0 0 0 0 0
0 0 0 0 0 0 0 0 0 0 0 0 0 0 0 0 0 0 0 0 0 0 0 0 0 0 0 0 0 0 0 0 0 0 0 0 0 0 0 0 0 0 0
0 0 0 0 0 0 0 0 0 0 0 0 0 0 0 0 0 0 0 0 0 0 0 0 0 0 0 0 0 0 0 0 0 0 0 0 0 0 0 0 0 0 0
0 0 0 0 0 0 0 0 0 0 0 0 0 0 0 0 0 0 0 0 0 0 0 0 0 0 0 0 0 0 0 0 0 0 0 0 0 0 0 0 0 0 0
0 0 0 0 0 0 0 0 0 0 0 0 0 0 0 0 0 0 0 0 0 0 0 0 0 0 0 0 0 0 0 0 0 0 0 0 0 0 0 0 0 0 0
Height
5850 5850 5850 5850 5850 5850 5849 5849 5848 5847 5846 5845 5844 5842 5841 5840 5838 5836 5834 5832 5830 5828 5826 5824 5822 5819 5817 5815 5814 5812 5810 5808 5807 5804 5803 5801 5801 5801 5801 5801 5801 5801 5802
5847 5847 5847 5847 5846 5846 5845 5844 5843 5842 5841 5840 5839 5837 5836 5834 5832 5830 5828 5826 5824 5822 5819 5817 5815 5812 5810 5808 5806 5804 5802 5800 5799 5796 5794 5792 5791 5790 5790 5790 5790 5790 5790
5843 5843 5842 5842 5842 5841 5840 5839 5838 5837 5835 5834 5833 5831 5829 5828 5826 5824 5821 5819 5817 5815 5812 5810 5807 5805 5802 5800 5797 5795 5793 5791 5789 5787 5785 5783 5781 5780 5779 5778 5778 5778 5778
5838 5838 5838 5837 5836 5835 5834 5833 5832 5830 5829 5827 5826 5824 5822 5820 5818 5816 5814 5812 5809 5807 5804 5802 5799 5796 5794 5791 5789 5786 5784 5781 5779 5777 5775 5772 5770 5768 5767 5766 5766 5765 5765
5833 5832 5832 5831 5830 5829 5828 5826 5825 5823 5821 5820 5818 5816 5814 5812 5810 5808 5806 5804 5801 5798 5796 5793 5790 5787 5784 5782 5779 5776 5774 5771 5768 5766 5764 5762 5759 5756 5755 5754 5754 5753 5752
5827 5826 5825 5824 5823 5822 5820 5818 5816 5815 5813 5811 5809 5807 5806 5803 5801 5799 5797 5795 5792 5789 5786 5783 5781 5778 5775 5772 5769 5766 5763 5760 5757 5755 5753 5750 5747 5744 5743 5742 5741 5740 5740
5821 5820 5818 5817 5815 5814 5812 5810 5808 5806 5803 5802 5800 5798 5796 5794 5791 5789 5786 5784 5782 5779 5776 5773 5770 5767 5764 5761 5759 5756 5752 5749 5746 5743 5741 5738 5735 5732 5730 5729 5727 5727 5727
5813 5812 5810 5809 5807 5805 5803 5801 5799 5796 5794 5792 5790 5788 5786 5784 5781 5778 5775 5773 5771 5768 5765 5762 5759 5756 5753 5750 5747 5744 5741 5737 5733 5731 5729 5726 5722 5719 5716 5715 5714 5713 5713
5805 5804 5802 5800 5799 5796 5794 5792 5789 5787 5785 5782 5780 5777 5775 5773 5770 5766 5763 5761 5759 5756 5753 5750 5747 5744 5740 5737 5735 5732 5729 5724 5721 5718 5716 5713 5709 5706 5703 5702 5701 5700 5700
5797 5795 5793 5791 5789 5786 5784 5781 5779 5776 5774 5771 5768 5766 5763 5761 5758 5754 5750 5748 5745 5743 5740 5737 5733 5730 5727 5723 5721 5718 5715 5712 5708 5705 5702 5699 5696 5693 5690 5689 5687 5687 5687
5788 5786 5783 5781 5779 5776 5773 5770 5767 5764 5761 5758 5756 5753 5750 5747 5744 5740 5736 5733 5730 5728 5725 5723 5719 5716 5713 5709 5706 5704 5701 5697 5694 5691 5688 5685 5682 5679 5677 5675 5674 5674 5674
5778 5775 5773 5770 5767 5764 5761 5758 5755 5752 5748 5745 5742 5739 5736 5733 5729 5725 5722 5718 5714 5712 5710 5707 5704 5700 5697 5694 5691 5689 5685 5682 5680 5677 5674 5671 5668 5666 5664 5662 5662 5661 5661
5766 5764 5761 5758 5755 5752 5748 5745 5741 5737 5734 5730 5727 5724 5721 5717 5713 5710 5705 5701 5697 5694 5693 5690 5687 5684 5680 5678 5675 5672 5669 5667 5665 5663 5661 5658 5655 5652 5651 5649 5648 5648 5648
5754 5751 5748 5744 5741 5737 5733 5730 5726 5722 5718 5714 5710 5707 5704 5700 5696 5692 5688 5684 5680 5677 5674 5672 5669 5666 5663 5661 5658 5656 5653 5651 5649 5648 5646 5644 5641 5640 5638 5637 5636 5635 5636
5741 5738 5734 5731 5727 5723 5718 5714 5709 5705 5700 5696 5692 5688 5684 5682 5678 5673 5668 5665 5661 5658 5654 5652 5650 5648 5645 5643 5641 5639 5637 5635 5634 5633 5631 5630 5628 5627 5625 5624 5623 5623 5624
5729 5725 5721 5716 5712 5708 5703 5699 5693 5688 5682 5677 5672 5668 5664 5660 5656 5652 5648 5644 5640 5636 5633 5632 5630 5628 5626 5625 5623 5622 5621 5620 5619 5618 5617 5617 5615 5614 5613 5612 5612 5612 5612
5715 5710 5706 5701 5696 5691 5686 5681 5677 5672 5665 5658 5652 5646 5641 5637 5633 5629 5625 5621 5617 5614 5611 5610 5609 5608 5607 5606 5606 5605 5605 5604 5603 5604 5604 5603 5603 5602 5601 5600 5600 5600 5600
5700 5695 5690 5685 5679 5673 5668 5662 5656 5651 5647 5640 5633 5625 5619 5614 5610 5605 5601 5597 5595 5591 5589 5588 5588 5587 5587 5587 5588 5588 5588 5588 5589 5590 5590 5590 5590 5589 5589 5589 5588 5588 5589
5684 5679 5673 5667 5660 5654 5648 5642 5635 5629 5623 5617 5611 5604 5597 5591 5586 5582 5577 5574 5572 5570 5568 5567 5567 5568 5569 5570 5570 5571 5573 5574 5575 5576 5576 5577 5577 5577 5577 5577 5577 5577 5577
5667 5661 5654 5648 5641 5634 5627 5620 5613 5606 5600 5593 5587 5581 5575 5569 5565 5561 5556 5552 5550 5549 5548 5548 5549 5550 5551 5553 5554 5556 5558 5560 5561 5563 5564 5564 5565 5565 5566 5566 5566 5566 5566
5649 5642 5635 5628 5621 5613 5606 5599 5592 5585 5579 5572 5566 5559 5553 5548 5544 5541 5537 5534 5532 5532 5532 5532 5533 5535 5537 5539 5541 5543 5545 5547 5549 5551 5552 5553 5554 5554 5554 5554 5555 5555 5555
5630 5624 5616 5609 5602 5594 5587 5580 5573 5566 5559 5553 5547 5541 5535 5530 5526 5523 5521 5519 5518 5518 5519 5520 5522 5523 5525 5527 5530 5532 5534 5536 5538 5540 5541 5542 5543 5543 5543 5543 5544 5544 5545
5612 5606 5598 5591 5584 5577 5570 5563 5556 5550 5543 5537 5531 5526 5521 5516 5513 5510 5508 5507 5507 5507 5508 5510 5512 5514 5516 5519 5521 5523 5525 5528 5529 5531 5532 5532 5532 5533 5533 5533 5533 5534 5534
5596 5589 5583 5576 5569 5563 5556 5549 5542 5536 5530 5524 5519 5514 5510 5506 5503 5501 5499 5498 5499 5500 5501 5504 5506 5508 5510 5512 5515 5516 5518 5520 5521 5522 5522 5523 5523 5523 5523 5523 5523 5523 5524
5582 5576 5570 5563 5557 5551 5544 5537 5531 5525 5519 5514 5509 5505 5501 5498 5496 5495 5494 5494 5494 5496 5497 5499 5501 5503 5505 5507 5509 5510 5512 5512 5513 5513 5514 5513 5513 5513 5513 5513 5513 5513 5514
5571 5565 5559 5553 5546 5540 5534 5528 5521 5516 5511 5506 5502 5498 5495 5493 5492 5491 5491 5491 5492 5493 5494 5496 5498 5499 5501 5502 5504 5505 5505 5505 5506 5505 5505 5504 5504 5503 5503 5503 5503 5503 5504
Wind_Speed
10 10 10 9 9 10 11 12 13 14 15 17 18 18 19 21 22 22 23 23 24 24 24 25 25 25 25 25 25 26 27 27 28 30 32 33 33 34 35 36 37 38 38
12 12 12 12 13 13 14 16 17 17 18 19 20 21 22 23 24 24 24 25 26 26 27 27 28 28 27 27 27 28 29 29 29 30 32 33 34 35 36 38 39 40 41
14 14 15 15 16 17 18 19 20 21 22 23 23 24 25 25 26 26 27 27 28 28 29 30 30 30 30 30 30 31 31 31 31 31 32 34 35 36 37 38 40 41 42
16 17 17 18 19 20 21 22 23 24 25 26 26 27 28 28 28 28 29 30 30 31 32 32 32 32 32 32 32 32 32 32 33 32 33 35 36 37 38 39 40 41 42
18 19 20 20 21 23 24 25 27 28 29 29 29 30 30 31 31 31 31 32 33 34 34 34 34 34 34 33 34 34 34 35 35 35 35 36 37 39 39 40 40 41 42
20 21 22 23 24 25 27 28 29 30 31 32 32 33 33 34 34 34 34 35 35 36 36 36 36 36 36 36 36 36 37 37 38 38 38 38 39 41 41 41 41 40 41
23 24 25 26 27 28 30 31 32 34 35 35 35 36 36 37 37 37 37 38 38 38 38 39 39 38 38 38 38 39 39 39 40 40 39 40 41 42 42 42 41 41 41
25 26 28 29 30 31 32 33 35 37 38 38 39 39 39 40 40 40 41 41 41 41 41 41 41 41 41 41 40 40 41 41 42 42 41 41 42 43 43 42 42 41 41
28 30 31 32 33 35 36 36 38 40 41 42 42 42 42 42 43 44 45 45 44 44 44 43 43 43 44 43 43 42 43 43 44 43 42 42 42 42 43 42 42 41 40
32 32 34 35 37 39 40 40 41 43 45 46 46 46 46 46 47 48 49 49 48 47 47 46 46 46 47 46 46 45 45 45 46 45 44 43 42 42 42 42 41 40 39
35 35 36 38 40 42 43 44 45 46 47 48 49 49 49 50 50 51 52 52 51 51 50 49 49 50 49 49 49 48 48 47 46 46 44 43 43 43 43 42 41 40 39
37 38 39 41 42 44 46 46 48 49 50 51 52 52 52 53 53 53 54 55 55 54 53 53 53 53 53 53 52 51 50 49 48 46 44 43 43 43 42 41 40 40 39
40 41 43 44 45 46 48 49 50 51 52 53 54 54 54 55 55 56 57 57 58 58 57 56 56 57 56 55 54 53 52 50 48 46 43 42 43 43 42 40 40 39 38
42 44 45 46 48 49 50 51 52 53 54 56 56 57 57 58 58 59 60 60 61 61 61 60 60 60 58 57 55 54 52 50 48 45 43 42 42 41 40 40 39 38 37
44 46 47 48 50 51 52 54 55 56 58 59 60 61 62 62 62 63 64 64 64 64 64 63 62 61 59 57 55 53 51 49 47 45 43 42 41 40 39 39 38 37 36
46 48 49 51 52 54 55 56 58 60 61 63 64 65 65 66 66 67 67 67 67 67 66 65 63 61 59 56 54 52 50 48 46 45 43 41 40 39 39 38 37 36 35
48 50 52 54 55 57 58 59 60 61 63 65 66 68 68 69 69 69 69 69 68 67 66 64 61 59 57 54 53 51 49 46 44 43 41 40 39 39 38 37 36 35 35
51 53 55 56 57 59 60 62 63 64 65 66 67 69 70 70 70 70 69 69 67 66 64 61 59 56 54 52 50 48 46 44 43 42 40 39 38 38 36 35 35 35 35
54 55 57 58 60 62 63 65 66 67 68 68 68 68 68 67 66 65 64 63 61 59 58 56 53 51 50 48 46 44 43 42 42 41 39 38 37 36 35 34 34 34 33
57 58 60 61 63 64 65 66 66 66 66 66 65 65 64 62 60 58 57 55 53 51 49 47 45 44 43 41 40 39 39 39 38 37 36 35 34 34 34 34 33 33 32
59 60 62 63 63 64 64 63 63 62 62 61 60 59 58 56 54 52 49 47 45 42 40 39 38 37 36 35 35 34 34 34 34 34 33 33 33 33 33 33 33 32 32
60 60 61 61 61 60 59 59 58 57 56 54 53 51 49 47 44 41 39 37 35 33 33 32 31 30 29 28 28 29 30 30 30 31 31 31 31 31 31 31 31 31 31
58 58 57 56 55 54 53 52 51 50 49 47 44 41 39 37 35 33 31 30 28 26 25 23 22 22 23 24 24 24 25 26 27 28 29 29 30 30 30 30 30 30 30
53 52 51 50 49 48 48 47 46 44 42 40 37 34 32 29 26 24 22 21 20 20 19 18 19 19 20 20 20 21 22 24 26 26 27 27 28 28 29 29 29 29 29
47 46 45 44 44 44 43 42 40 38 36 33 31 29 26 23 19 17 15 15 14 15 15 15 15 16 17 18 18 20 21 23 23 24 25 26 27 28 28 28 28 29 29
42 42 41 41 41 40 38 37 35 32 30 27 26 23 20 17 15 13 12 11 10 10 11 11 12 12 13 14 16 18 19 21 22 23 24 25 26 26 27 27 28 28 28
Wind_Direction
246 251 257 265 274 282 287 291 293 296 297 297 297 298 299 300 301 302 302 303 305 306 306 306 305 304 302 301 297 295 293 291 289 287 285 282 279 276 273 270 267 265 262
252 255 261 268 275 281 285 288 290 292 294 294 295 296 297 299 300 301 302 302 303 304 304 304 304 302 300 299 298 296 294 292 290 288 287 285 282 279 276 273 269 266 263
256 260 264 270 275 279 283 285 288 290 291 293 294 295 297 298 299 300 300 301 301 302 302 303 302 301 299 298 298 296 295 294 292 290 288 286 284 282 279 276 272 269 265
260 263 267 272 276 279 282 285 287 289 290 291 292 294 295 297 298 298 298 299 300 300 301 301 301 300 299 298 298 297 296 295 294 292 290 288 286 284 281 278 275 272 269
264 267 270 274 277 280 282 284 287 288 290 291 292 293 294 295 297 297 297 298 299 299 299 299 299 299 298 297 297 297 296 296 296 295 292 290 288 286 283 281 278 275 271
270 272 275 277 279 281 282 284 286 288 289 290 291 292 293 294 296 297 297 298 299 298 298 298 298 297 297 296 296 296 296 296 296 295 294 292 289 287 285 282 279 276 273
276 278 280 281 282 283 284 286 287 288 288 289 291 292 293 294 295 296 296 297 297 297 297 297 297 296 296 295 295 296 296 296 296 296 295 293 290 288 285 282 279 276 273
279 282 284 285 285 286 287 288 289 289 290 291 292 292 293 294 294 294 295 296 296 296 296 296 295 295 294 294 294 294 295 295 295 296 295 293 290 287 284 281 279 276 273
281 283 285 287 288 288 288 289 290 290 291 291 291 291 292 292 293 293 294 294 294 294 294 294 293 293 293 293 293 293 293 294 295 295 294 291 289 286 283 281 278 276 273
282 284 285 287 288 288 288 288 288 288 288 288 289 291 290 291 291 292 292 292 292 293 292 292 292 292 292 292 293 294 293 292 294 294 293 290 288 285 283 280 277 275 272
284 284 284 285 286 287 287 286 286 287 288 289 289 289 289 289 290 290 291 291 291 291 290 291 291 291 291 291 292 293 293 292 292 292 291 289 287 285 282 279 276 274 271
283 283 284 284 284 284 285 285 285 286 286 286 287 287 288 288 288 288 288 289 289 288 289 289 289 290 289 290 291 291 291 291 291 291 290 287 285 284 282 279 276 273 270
284 285 285 286 286 286 286 286 286 286 286 286 286 286 286 286 286 286 286 286 286 287 287 287 287 287 288 288 289 289 288 289 289 289 287 285 283 282 280 278 275 272 270
286 287 287 287 288 288 288 287 287 287 287 286 286 286 286 286 286 285 285 285 285 285 285 285 285 286 286 286 286 286 286 286 287 286 284 283 282 281 279 277 275 272 270
288 289 289 289 289 289 289 289 289 288 288 288 287 287 287 286 285 285 284 284 283 283 283 283 283 283 283 283 283 283 282 283 283 282 282 281 280 279 278 276 274 272 269
290 290 290 290 290 290 289 289 289 289 289 288 288 287 287 286 285 284 284 283 282 282 281 281 280 280 280 279 279 279 279 279 279 279 279 277 277 276 275 274 273 271 270
291 291 290 290 290 290 290 289 289 288 289 288 288 288 287 286 285 285 284 283 282 281 281 280 279 278 277 275 275 274 274 275 275 276 275 274 274 274 274 272 270 270 269
292 292 292 291 291 291 291 290 290 289 288 287 287 287 287 286 286 285 284 282 281 281 280 278 276 275 274 273 271 270 270 271 271 272 272 272 272 272 271 270 268 268 267
294 294 294 294 293 293 293 292 292 291 290 290 289 288 288 287 286 286 284 283 282 280 278 276 274 273 272 271 269 268 267 266 267 268 268 269 269 269 269 269 267 267 266
296 296 296 296 295 295 294 294 293 293 293 292 291 290 289 289 288 287 285 284 283 280 277 274 271 268 268 267 265 265 264 262 263 265 266 267 268 268 268 267 267 266 265
298 298 298 297 297 297 296 296 296 295 295 295 294 293 292 290 289 287 284 283 280 278 274 271 267 266 265 262 262 263 261 261 262 264 265 266 267 268 268 267 266 265 264
299 299 299 299 299 299 299 299 299 299 299 298 297 296 295 294 292 288 285 282 277 273 271 269 265 263 259 257 258 259 258 258 261 262 264 266 267 268 268 267 265 264 263
301 301 301 301 301 302 302 302 302 302 302 301 301 299 297 294 291 289 286 280 274 270 265 262 261 258 255 254 254 257 257 259 261 263 266 266 267 268 267 266 265 264 263
303 303 303 303 304 305 305 305 305 305 304 304 304 302 300 297 293 292 287 278 269 263 261 257 256 256 254 253 253 258 261 262 263 266 267 268 269 269 267 266 265 263 262
305 306 306 307 307 308 309 309 309 308 308 308 307 305 302 298 291 288 285 279 267 261 258 255 255 255 255 254 257 261 265 267 267 268 269 270 271 270 269 267 264 261 260
307 308 309 310 310 311 312 313 313 312 311 311 311 310 307 300 291 285 280 277 268 258 252 251 253 253 251 255 261 266 269 270 271 272 273 274 274 272 269 267 264 260 259